Location: Doverdale
(52.2833°N, 2.2000°W)
Time: 12:19:49
(UTC+00:00)

ERS-2 - Pass Details

Date: 29 October 2020
Orbit: 493 x 498 km, 98.6° (Epoch: 24 November)

Event Time Altitude Azimuth Distance (km) Brightness Sun altitude
Rises 18:44:18 0° 7° (N) 2,591 5.7 -18.8°
Reaches altitude 10° 18:46:33 10° 356° (N) 1,703 4.9 -19.1°
Maximum altitude 18:49:45 29° 296° (WNW) 939 4.1 -19.6°
Drops below altitude 10° 18:52:55 10° 235° (SW) 1,693 5.5 -20.1°
Sets 18:55:09 0° 224° (SW) 2,571 6.3 -20.4°
